contact:dominique.lefevre@mio.osupytheas.fr, maurice.libes@osupytheas.fr, didier.mallarino@osupytheas.fr
Project:EMSO http://www.emso-fr.org/EMSO-France
Depth: 2436.0 m
Title:EMSO Ligure Ouest : Data MII capteur AQUADOPP
Date,Latitude,Longitude,X_East,Y_North,Z_Up,Amplitude_X,Amplitude_Y,Amplitude_Z,Batterie,SoundSpeed,Heading,Pitch,Roll,Pressure,TIS,Speed,Direction
, degrees North, degrees East, m.s-1, m.s-1,m.s-1, 1, 1, 1, Volt, m.s-1, degree, degree, degree, dbar, degree_C, m.s-1, degree
2021-06-27T00:04:03,42.805,6.029,-0.003,-0.027,-0.011,105.0,104.0,103.0,13.4,1505.2,328.6,-0.8,1.8,2470.579,13.28,0.027,186.3
2021-06-27T00:07:03,42.805,6.029,-0.029,-0.04,0.003,106.0,105.0,103.0,13.4,1505.2,329.9,-0.8,1.8,2470.563,13.28,0.049,215.9
2021-06-27T00:10:03,42.805,6.029,0.011,-0.056,0.01,106.0,104.0,103.0,13.3,1505.2,328.8,-0.8,1.8,2470.568,13.28,0.057,168.9
2021-06-27T00:13:03,42.805,6.029,-0.012,-0.034,-0.02,105.0,105.0,104.0,13.3,1505.2,325.2,-0.8,1.8,2470.605,13.28,0.036,199.4
2021-06-27T00:16:03,42.805,6.029,-0.007,-0.041,-0.026,105.0,105.0,103.0,13.4,1505.2,327.1,-0.7,1.8,2470.56,13.28,0.041,189.7
2021-06-27T00:19:03,42.805,6.029,-0.001,-0.051,-0.021,106.0,105.0,103.0,13.3,1505.2,327.8,-0.7,1.8,2470.571,13.28,0.051,181.1
2021-06-27T00:22:03,42.805,6.029,-0.003,-0.021,-0.025,106.0,105.0,103.0,13.3,1505.2,327.3,-0.8,1.8,2470.568,13.28,0.021,188.1
2021-06-27T00:25:03,42.805,6.029,0.0,-0.027,0.005,107.0,104.0,104.0,13.4,1505.2,325.5,-0.7,1.8,2470.544,13.28,0.026,180.0
2021-06-27T00:28:03,42.805,6.029,0.0,-0.028,-0.005,106.0,105.0,103.0,13.4,1505.2,330.1,-0.8,1.8,2470.526,13.28,0.028,180.0
2021-06-27T00:31:03,42.805,6.029,-0.01,-0.031,-0.016,106.0,106.0,103.0,13.4,1505.2,327.9,-0.8,1.8,2470.587,13.28,0.032,197.9
2021-06-27T00:34:03,42.805,6.029,0.003,-0.053,-0.003,106.0,105.0,102.0,13.4,1505.2,327.8,-0.7,1.8,2470.566,13.28,0.053,176.8
2021-06-27T00:37:03,42.805,6.029,-0.016,-0.03,-0.011,106.0,105.0,104.0,13.4,1505.2,324.3,-0.7,1.8,2470.524,13.28,0.034,208.1
2021-06-27T00:40:03,42.805,6.029,0.015,-0.047,-0.007,106.0,105.0,103.0,13.4,1505.2,330.4,-0.8,1.8,2470.555,13.28,0.049,162.3
2021-06-27T00:43:03,42.805,6.029,0.001,-0.031,-0.02,106.0,104.0,103.0,13.4,1505.2,327.5,-0.8,1.8,2470.557,13.28,0.031,178.2
2021-06-27T00:46:03,42.805,6.029,-0.013,-0.037,-0.016,105.0,105.0,103.0,13.4,1505.2,326.1,-0.7,1.8,2470.54,13.28,0.039,199.4
2021-06-27T00:49:03,42.805,6.029,0.004,-0.034,-0.009,106.0,106.0,103.0,13.4,1505.2,328.2,-0.8,1.8,2470.528,13.28,0.034,173.3
2021-06-27T00:52:03,42.805,6.029,-0.006,-0.05,-0.026,106.0,105.0,103.0,13.4,1505.2,329.3,-0.8,1.8,2470.524,13.28,0.05,186.8
2021-06-27T00:55:03,42.805,6.029,-0.01,-0.041,-0.014,105.0,105.0,103.0,13.4,1505.2,325.0,-0.7,1.8,2470.552,13.28,0.042,193.7
2021-06-27T00:58:03,42.805,6.029,-0.021,-0.036,-0.015,106.0,104.0,103.0,13.3,1505.2,329.0,-0.7,1.8,2470.508,13.28,0.041,210.3
2021-06-27T01:04:03,42.805,6.029,0.001,-0.036,-0.005,106.0,105.0,104.0,13.4,1505.2,327.4,-0.8,1.8,2470.552,13.28,0.036,178.4
2021-06-27T01:07:03,42.805,6.029,-0.002,-0.034,-0.024,107.0,106.0,104.0,13.4,1505.2,325.3,-0.8,1.8,2470.536,13.28,0.034,183.4
2021-06-27T01:10:03,42.805,6.029,-0.017,-0.042,-0.029,106.0,105.0,104.0,13.4,1505.2,330.4,-0.7,1.8,2470.546,13.28,0.045,202.0
2021-06-27T01:13:03,42.805,6.029,-0.008,-0.043,-0.001,104.0,106.0,103.0,13.4,1505.2,328.2,-0.7,1.8,2470.535,13.28,0.043,190.5
2021-06-27T01:16:03,42.805,6.029,-0.007,-0.048,-0.054,107.0,105.0,103.0,13.4,1505.2,329.3,-0.8,1.8,2470.531,13.28,0.048,188.3
2021-06-27T01:19:03,42.805,6.029,-0.012,-0.046,0.022,105.0,106.0,103.0,13.4,1505.2,328.7,-0.8,1.9,2470.544,13.28,0.047,194.6
2021-06-27T01:22:03,42.805,6.029,-0.012,-0.033,-0.028,106.0,108.0,103.0,13.3,1505.2,329.6,-0.7,1.8,2470.513,13.28,0.035,200.0
2021-06-27T01:25:03,42.805,6.029,0.001,-0.034,-0.011,106.0,106.0,104.0,13.4,1505.2,326.0,-0.7,1.8,2470.479,13.28,0.034,178.3
2021-06-27T01:28:03,42.805,6.029,-0.02,-0.022,-0.027,107.0,106.0,102.0,13.4,1505.2,328.8,-0.8,1.8,2470.509,13.28,0.029,222.3
2021-06-27T01:31:03,42.805,6.029,-0.021,-0.028,-0.001,106.0,105.0,104.0,13.4,1505.2,326.6,-0.7,1.8,2470.523,13.28,0.035,216.9
2021-06-27T01:34:03,42.805,6.029,-0.01,-0.042,0.002,105.0,105.0,104.0,13.4,1505.2,327.1,-0.8,1.8,2470.51,13.28,0.043,193.4
2021-06-27T01:37:03,42.805,6.029,-0.012,-0.037,-0.004,106.0,105.0,105.0,13.4,1505.2,326.8,-0.8,1.8,2470.528,13.28,0.038,198.0
2021-06-27T01:40:03,42.805,6.029,-0.004,-0.025,0.018,106.0,107.0,103.0,13.4,1505.2,326.9,-0.8,1.8,2470.502,13.28,0.025,189.1
2021-06-27T01:43:03,42.805,6.029,-0.011,-0.028,0.016,105.0,104.0,104.0,13.4,1505.2,327.4,-0.8,1.8,2470.494,13.28,0.03,201.4
2021-06-27T01:46:03,42.805,6.029,-0.017,-0.012,-0.046,108.0,107.0,104.0,13.4,1505.2,326.0,-0.7,1.8,2470.483,13.28,0.02,234.8
2021-06-27T01:49:03,42.805,6.029,0.01,-0.025,-0.024,106.0,106.0,104.0,13.4,1505.2,326.8,-0.7,1.8,2470.465,13.28,0.026,158.2
2021-06-27T01:52:03,42.805,6.029,0.004,-0.035,0.001,106.0,105.0,104.0,13.4,1505.2,330.0,-0.8,1.8,2470.485,13.28,0.035,173.5
2021-06-27T01:55:03,42.805,6.029,-0.023,-0.028,-0.002,106.0,107.0,101.0,13.4,1505.2,327.0,-0.8,1.8,2470.504,13.28,0.036,219.4
2021-06-27T01:58:03,42.805,6.029,-0.009,-0.017,0.013,105.0,106.0,104.0,13.4,1505.2,327.2,-0.7,1.8,2470.487,13.28,0.019,207.9
2021-06-27T02:04:03,42.805,6.029,0.003,-0.006,-0.005,107.0,106.0,104.0,13.3,1505.2,325.6,-0.8,1.8,2470.502,13.28,0.006,153.4
2021-06-27T02:07:03,42.805,6.029,-0.004,-0.026,-0.01,107.0,106.0,103.0,13.4,1505.2,326.7,-0.8,1.8,2470.49,13.28,0.026,188.7
2021-06-27T02:10:03,42.805,6.029,-0.024,-0.012,-0.021,106.0,105.0,104.0,13.4,1505.2,329.1,-0.8,1.8,2470.45,13.28,0.026,243.4
2021-06-27T02:13:03,42.805,6.029,0.003,-0.047,0.004,104.0,106.0,103.0,13.4,1505.2,327.8,-0.8,1.8,2470.493,13.28,0.047,176.4
2021-06-27T02:16:03,42.805,6.029,-0.003,-0.031,-0.043,105.0,105.0,102.0,13.4,1505.2,329.5,-0.7,1.8,2470.452,13.28,0.031,185.5
2021-06-27T02:19:03,42.805,6.029,-0.017,-0.036,-0.028,105.0,104.0,103.0,13.4,1505.2,326.5,-0.7,1.8,2470.476,13.28,0.039,205.3
2021-06-27T02:22:03,42.805,6.029,0.001,-0.052,-0.027,105.0,106.0,102.0,13.4,1505.2,328.0,-0.7,1.8,2470.441,13.28,0.052,178.9
2021-06-27T02:25:03,42.805,6.029,-0.01,-0.018,0.0,105.0,104.0,103.0,13.4,1505.2,329.6,-0.8,1.8,2470.476,13.28,0.02,209.1
2021-06-27T02:28:03,42.805,6.029,-0.008,-0.025,-0.021,106.0,104.0,103.0,13.3,1505.2,329.0,-0.7,1.8,2470.419,13.28,0.026,197.7
2021-06-27T02:31:03,42.805,6.029,-0.011,-0.046,0.011,103.0,104.0,104.0,13.3,1505.2,328.1,-0.8,1.9,2470.442,13.28,0.047,193.4
2021-06-27T02:34:03,42.805,6.029,-0.022,-0.015,0.0,105.0,104.0,102.0,13.4,1505.2,328.4,-0.7,1.8,2470.442,13.28,0.026,235.7
2021-06-27T02:37:03,42.805,6.029,-0.009,-0.015,-0.015,106.0,105.0,102.0,13.4,1505.2,327.8,-0.8,1.8,2470.452,13.28,0.017,211.0
2021-06-27T02:40:03,42.805,6.029,0.02,-0.057,-0.014,105.0,105.0,103.0,13.3,1505.2,327.3,-0.7,1.8,2470.431,13.28,0.06,160.7
2021-06-27T02:43:03,42.805,6.029,0.005,-0.031,0.0,105.0,105.0,105.0,13.4,1505.2,326.1,-0.7,1.8,2470.436,13.28,0.031,170.8
2021-06-27T02:46:03,42.805,6.029,0.004,-0.041,-0.034,106.0,105.0,103.0,13.4,1505.2,326.6,-0.8,1.8,2470.408,13.28,0.041,174.4
2021-06-27T02:49:03,42.805,6.029,-0.024,-0.03,-0.002,105.0,104.0,104.0,13.4,1505.2,329.1,-0.7,1.8,2470.431,13.28,0.038,218.7
2021-06-27T02:52:03,42.805,6.029,0.007,-0.025,0.007,106.0,104.0,102.0,13.3,1505.2,327.9,-0.8,1.8,2470.397,13.28,0.025,164.4
2021-06-27T02:55:03,42.805,6.029,-0.019,-0.018,0.003,105.0,104.0,103.0,13.4,1505.2,325.4,-0.8,1.8,2470.451,13.28,0.026,226.5
2021-06-27T02:58:03,42.805,6.029,-0.025,-0.051,-0.028,105.0,103.0,103.0,13.3,1505.2,327.7,-0.8,1.8,2470.416,13.28,0.056,206.1
2021-06-27T03:04:03,42.805,6.029,-0.019,-0.027,-0.002,105.0,105.0,103.0,13.3,1505.2,327.5,-0.8,1.8,2470.498,13.28,0.033,215.1
2021-06-27T03:07:03,42.805,6.029,-0.025,-0.01,0.02,106.0,105.0,104.0,13.4,1505.2,330.0,-0.7,1.8,2470.452,13.28,0.026,248.2
2021-06-27T03:10:03,42.805,6.029,0.015,-0.032,0.009,106.0,105.0,103.0,13.4,1505.2,327.9,-0.8,1.8,2470.398,13.28,0.035,154.9
2021-06-27T03:13:03,42.805,6.029,-0.005,-0.024,0.003,105.0,105.0,102.0,13.4,1505.2,328.8,-0.7,1.9,2470.435,13.28,0.024,191.8
2021-06-27T03:16:03,42.805,6.029,0.002,-0.035,0.008,106.0,105.0,103.0,13.3,1505.2,328.8,-0.8,1.8,2470.406,13.28,0.035,176.7
2021-06-27T03:19:03,42.805,6.029,0.023,-0.034,-0.002,106.0,105.0,103.0,13.3,1505.2,327.3,-0.7,1.8,2470.44,13.28,0.041,145.9
2021-06-27T03:22:03,42.805,6.029,0.008,-0.021,-0.005,105.0,105.0,103.0,13.4,1505.2,328.6,-0.7,1.8,2470.447,13.28,0.022,159.1
2021-06-27T03:25:03,42.805,6.029,-0.002,-0.025,-0.016,106.0,105.0,103.0,13.4,1505.2,326.5,-0.7,1.8,2470.448,13.28,0.025,184.6
2021-06-27T03:28:03,42.805,6.029,-0.012,-0.021,0.006,106.0,105.0,103.0,13.3,1505.2,325.0,-0.8,1.8,2470.415,13.28,0.024,209.7
2021-06-27T03:31:03,42.805,6.029,-0.01,-0.013,-0.023,105.0,106.0,104.0,13.4,1505.2,329.3,-0.8,1.8,2470.404,13.28,0.016,217.6
2021-06-27T03:34:03,42.805,6.029,-0.009,-0.017,0.0,105.0,105.0,103.0,13.4,1505.2,326.9,-0.8,1.8,2470.419,13.28,0.019,207.9
2021-06-27T03:37:03,42.805,6.029,-0.007,-0.037,-0.013,106.0,105.0,104.0,13.4,1505.2,329.2,-0.7,1.8,2470.37,13.28,0.037,190.7
2021-06-27T03:40:03,42.805,6.029,0.008,-0.041,-0.013,106.0,104.0,104.0,13.4,1505.2,328.8,-0.7,1.8,2470.444,13.28,0.041,169.0
2021-06-27T03:43:03,42.805,6.029,0.007,-0.026,-0.012,106.0,106.0,103.0,13.4,1505.2,329.4,-0.8,1.8,2470.412,13.28,0.026,164.9
2021-06-27T03:46:03,42.805,6.029,0.013,-0.016,0.01,105.0,105.0,104.0,13.3,1505.2,327.9,-0.8,1.8,2470.421,13.28,0.02,140.9
2021-06-27T03:49:03,42.805,6.029,-0.001,-0.039,0.0,106.0,106.0,104.0,13.4,1505.2,328.4,-0.7,1.8,2470.443,13.28,0.039,181.5
2021-06-27T03:52:03,42.805,6.029,0.006,-0.029,0.0,106.0,106.0,103.0,13.4,1505.2,328.2,-0.7,1.8,2470.406,13.28,0.029,168.3
2021-06-27T03:55:03,42.805,6.029,0.002,-0.037,-0.036,104.0,106.0,104.0,13.3,1505.2,326.4,-0.7,1.8,2470.436,13.28,0.037,176.9
2021-06-27T03:58:03,42.805,6.029,-0.009,-0.028,-0.011,107.0,105.0,103.0,13.4,1505.2,329.7,-0.7,1.8,2470.412,13.28,0.029,197.8
2021-06-27T04:04:03,42.805,6.029,-0.014,-0.034,-0.017,106.0,105.0,103.0,13.3,1505.2,328.2,-0.8,1.8,2470.42,13.28,0.036,202.4
2021-06-27T04:07:03,42.805,6.029,-0.006,-0.023,0.008,106.0,105.0,102.0,13.4,1505.2,325.3,-0.8,1.8,2470.422,13.28,0.023,194.6
2021-06-27T04:10:03,42.805,6.029,-0.004,-0.047,-0.021,105.0,106.0,103.0,13.3,1505.2,327.9,-0.7,1.8,2470.402,13.28,0.047,184.9
2021-06-27T04:13:03,42.805,6.029,-0.007,-0.042,0.006,105.0,105.0,103.0,13.4,1505.2,330.4,-0.7,1.8,2470.401,13.28,0.042,189.5
2021-06-27T04:16:03,42.805,6.029,0.006,-0.041,-0.029,105.0,106.0,103.0,13.4,1505.2,328.0,-0.8,1.8,2470.422,13.28,0.041,171.7
2021-06-27T04:19:03,42.805,6.029,0.017,-0.044,-0.023,105.0,106.0,103.0,13.4,1505.2,328.0,-0.8,1.9,2470.422,13.28,0.047,158.9
2021-06-27T04:22:03,42.805,6.029,0.0,-0.039,-0.005,107.0,105.0,102.0,13.3,1505.2,325.9,-0.8,1.9,2470.408,13.28,0.039,180.0
2021-06-27T04:25:03,42.805,6.029,-0.017,-0.034,-0.031,105.0,104.0,103.0,13.4,1505.2,329.8,-0.7,1.8,2470.387,13.28,0.038,206.6
2021-06-27T04:28:03,42.805,6.029,0.003,-0.033,-0.003,106.0,105.0,103.0,13.3,1505.2,328.1,-0.8,1.9,2470.369,13.28,0.033,174.8
2021-06-27T04:31:03,42.805,6.029,-0.005,-0.047,-0.029,105.0,105.0,103.0,13.3,1505.2,325.5,-0.7,1.8,2470.387,13.28,0.047,186.1
2021-06-27T04:34:03,42.805,6.029,0.01,-0.036,0.004,105.0,105.0,103.0,13.3,1505.2,329.9,-0.7,1.8,2470.377,13.28,0.037,164.5
2021-06-27T04:37:03,42.805,6.029,-0.009,-0.027,-0.02,105.0,105.0,104.0,13.3,1505.2,325.2,-0.7,1.8,2470.391,13.28,0.028,198.4
2021-06-27T04:40:03,42.805,6.029,-0.007,-0.029,-0.007,106.0,105.0,104.0,13.3,1505.2,329.1,-0.7,1.8,2470.368,13.28,0.029,193.6
2021-06-27T04:43:03,42.805,6.029,-0.026,-0.035,0.004,106.0,105.0,103.0,13.3,1505.2,325.7,-0.8,1.8,2470.343,13.28,0.043,216.6
2021-06-27T04:46:03,42.805,6.029,-0.009,-0.048,-0.018,106.0,104.0,102.0,13.4,1505.2,327.6,-0.8,1.8,2470.29,13.28,0.048,190.6
2021-06-27T04:49:03,42.805,6.029,0.006,-0.043,-0.013,106.0,105.0,102.0,13.4,1505.2,325.2,-0.7,1.8,2470.37,13.28,0.043,172.1
2021-06-27T04:52:03,42.805,6.029,-0.016,-0.034,0.0,104.0,107.0,102.0,13.3,1505.2,328.3,-0.8,1.8,2470.345,13.28,0.037,205.2
2021-06-27T04:55:03,42.805,6.029,-0.013,-0.045,-0.008,105.0,104.0,104.0,13.4,1505.2,325.0,-0.7,1.8,2470.372,13.28,0.046,196.1
2021-06-27T04:58:03,42.805,6.029,-0.003,-0.017,-0.011,105.0,104.0,103.0,13.4,1505.2,326.3,-0.7,1.8,2470.393,13.28,0.017,190.0
2021-06-27T05:04:03,42.805,6.029,-0.002,-0.057,-0.001,106.0,106.0,104.0,13.4,1505.2,328.8,-0.8,1.9,2470.425,13.28,0.057,182.0
2021-06-27T05:07:03,42.805,6.029,0.009,-0.022,-0.027,105.0,105.0,104.0,13.4,1505.2,328.1,-0.8,1.8,2470.39,13.28,0.023,157.8
2021-06-27T05:10:03,42.805,6.029,0.003,-0.04,-0.053,105.0,105.0,103.0,13.4,1505.2,330.1,-0.7,1.8,2470.42,13.28,0.04,175.7
2021-06-27T05:13:03,42.805,6.029,0.003,-0.033,-0.001,105.0,105.0,103.0,13.3,1505.2,327.3,-0.7,1.8,2470.389,13.28,0.033,174.8
2021-06-27T05:16:03,42.805,6.029,0.017,-0.035,0.006,105.0,106.0,104.0,13.3,1505.2,327.2,-0.8,1.8,2470.413,13.28,0.038,154.1
2021-06-27T05:19:03,42.805,6.029,-0.004,-0.009,-0.005,106.0,106.0,103.0,13.3,1505.2,326.7,-0.7,1.8,2470.442,13.28,0.009,204.0
2021-06-27T05:22:03,42.805,6.029,-0.013,-0.048,-0.025,106.0,105.0,103.0,13.3,1505.2,329.6,-0.7,1.9,2470.431,13.28,0.049,195.2
2021-06-27T05:25:03,42.805,6.029,0.0,-0.041,-0.01,105.0,106.0,102.0,13.4,1505.2,328.7,-0.8,1.8,2470.429,13.28,0.041,180.0
2021-06-27T05:28:03,42.805,6.029,0.015,-0.028,0.012,106.0,105.0,103.0,13.4,1505.2,328.1,-0.8,1.8,2470.395,13.28,0.031,151.8
2021-06-27T05:31:03,42.805,6.029,-0.005,-0.029,-0.011,105.0,105.0,103.0,13.4,1505.2,327.2,-0.7,1.8,2470.457,13.28,0.029,189.8
2021-06-27T05:34:03,42.805,6.029,-0.004,-0.036,-0.016,104.0,105.0,104.0,13.4,1505.2,328.4,-0.8,1.8,2470.435,13.28,0.036,186.3
2021-06-27T05:37:03,42.805,6.029,-0.011,-0.011,-0.024,105.0,104.0,103.0,13.4,1505.2,330.0,-0.8,1.8,2470.453,13.28,0.015,225.0
2021-06-27T05:40:03,42.805,6.029,0.002,-0.036,-0.029,106.0,104.0,104.0,13.4,1505.2,327.1,-0.8,1.8,2470.422,13.28,0.036,176.8
2021-06-27T05:43:03,42.805,6.029,-0.001,-0.048,-0.02,106.0,105.0,103.0,13.4,1505.2,326.4,-0.8,1.8,2470.436,13.28,0.048,181.2
2021-06-27T05:46:03,42.805,6.029,-0.002,-0.013,-0.009,104.0,105.0,102.0,13.3,1505.2,328.3,-0.8,1.8,2470.459,13.28,0.013,188.7
2021-06-27T05:49:03,42.805,6.029,-0.003,-0.042,-0.032,106.0,104.0,103.0,13.4,1505.2,326.3,-0.7,1.8,2470.43,13.28,0.042,184.1
2021-06-27T05:52:03,42.805,6.029,-0.011,-0.024,-0.021,104.0,105.0,103.0,13.4,1505.2,325.3,-0.7,1.8,2470.478,13.28,0.026,204.6
2021-06-27T05:55:03,42.805,6.029,0.025,-0.022,-0.014,106.0,105.0,104.0,13.4,1505.2,329.2,-0.8,1.8,2470.482,13.28,0.033,131.3
2021-06-27T05:58:03,42.805,6.029,0.008,-0.022,-0.012,107.0,106.0,103.0,13.3,1505.2,328.2,-0.8,1.8,2470.467,13.28,0.023,160.0
2021-06-27T06:04:04,42.805,6.029,0.009,-0.022,-0.034,105.0,104.0,102.0,13.4,1505.2,327.2,-0.8,1.8,2470.492,13.28,0.023,157.8
2021-06-27T06:07:03,42.805,6.029,-0.006,-0.031,-0.044,105.0,105.0,103.0,13.4,1505.2,326.2,-0.7,1.8,2470.454,13.28,0.031,191.0
2021-06-27T06:10:03,42.805,6.029,-0.001,-0.029,0.003,105.0,105.0,103.0,13.4,1505.2,327.2,-0.8,1.8,2470.516,13.28,0.029,182.0
2021-06-27T06:13:03,42.805,6.029,0.008,-0.054,-0.02,106.0,105.0,104.0,13.3,1505.2,327.3,-0.7,1.9,2470.503,13.28,0.054,171.6
2021-06-27T06:16:03,42.805,6.029,0.007,-0.027,-0.032,106.0,105.0,102.0,13.3,1505.2,328.4,-0.8,1.9,2470.508,13.28,0.027,165.5
2021-06-27T06:19:03,42.805,6.029,0.012,-0.036,-0.026,105.0,106.0,103.0,13.3,1505.2,329.2,-0.8,1.8,2470.472,13.28,0.037,161.6
2021-06-27T06:22:03,42.805,6.029,-0.009,-0.027,-0.013,105.0,105.0,103.0,13.3,1505.2,329.7,-0.8,1.8,2470.481,13.28,0.028,198.4
2021-06-27T06:25:03,42.805,6.029,-0.016,-0.043,-0.023,105.0,105.0,103.0,13.4,1505.2,328.0,-0.8,1.8,2470.486,13.28,0.045,200.4
2021-06-27T06:28:03,42.805,6.029,-0.016,-0.041,-0.015,106.0,104.0,102.0,13.3,1505.2,326.7,-0.8,1.8,2470.484,13.28,0.044,201.3
2021-06-27T06:31:03,42.805,6.029,-0.023,-0.018,-0.007,105.0,105.0,104.0,13.4,1505.2,327.4,-0.7,1.8,2470.507,13.28,0.029,232.0
2021-06-27T06:34:03,42.805,6.029,0.009,-0.041,-0.003,106.0,105.0,104.0,13.4,1505.2,326.5,-0.7,1.8,2470.507,13.28,0.041,167.6
2021-06-27T06:37:03,42.805,6.029,-0.004,-0.04,-0.015,106.0,105.0,102.0,13.4,1505.2,327.4,-0.7,1.8,2470.494,13.28,0.04,185.7
2021-06-27T06:40:03,42.805,6.029,-0.02,-0.026,0.005,105.0,105.0,103.0,13.3,1505.2,328.0,-0.7,1.9,2470.522,13.28,0.032,217.6
2021-06-27T06:43:03,42.805,6.029,0.017,-0.034,0.008,107.0,105.0,102.0,13.4,1505.2,330.2,-0.8,1.8,2470.515,13.28,0.038,153.4
2021-06-27T06:46:03,42.805,6.029,0.002,-0.026,-0.022,106.0,104.0,104.0,13.4,1505.2,324.3,-0.8,1.8,2470.491,13.28,0.026,175.6
2021-06-27T06:49:03,42.805,6.029,0.01,-0.033,-0.004,105.0,105.0,103.0,13.3,1505.2,329.9,-0.7,1.8,2470.532,13.28,0.034,163.1
2021-06-27T06:52:03,42.805,6.029,0.006,-0.027,-0.03,106.0,105.0,103.0,13.4,1505.2,328.3,-0.7,1.8,2470.507,13.28,0.027,167.5
2021-06-27T06:55:03,42.805,6.029,0.016,-0.04,-0.008,105.0,104.0,104.0,13.4,1505.2,326.8,-0.8,1.8,2470.518,13.28,0.043,158.2
2021-06-27T06:58:03,42.805,6.029,-0.017,-0.043,-0.019,105.0,105.0,104.0,13.3,1505.2,324.3,-0.8,1.8,2470.503,13.28,0.046,201.6
2021-06-27T07:04:03,42.805,6.029,-0.001,-0.017,-0.017,106.0,105.0,102.0,13.4,1505.2,328.5,-0.7,1.8,2470.533,13.28,0.017,183.4
2021-06-27T07:07:03,42.805,6.029,-0.008,-0.028,-0.011,106.0,105.0,102.0,13.4,1505.2,328.9,-0.8,1.8,2470.526,13.28,0.029,195.9
2021-06-27T07:10:03,42.805,6.029,-0.012,-0.025,-0.002,107.0,105.0,104.0,13.4,1505.2,325.7,-0.8,1.8,2470.512,13.28,0.027,205.6
2021-06-27T07:13:03,42.805,6.029,-0.009,-0.04,-0.029,105.0,105.0,103.0,13.4,1505.2,330.5,-0.8,1.9,2470.545,13.28,0.041,192.7
2021-06-27T07:16:03,42.805,6.029,0.0,-0.018,0.003,105.0,104.0,103.0,13.4,1505.2,328.8,-0.8,1.8,2470.508,13.28,0.018,180.0
2021-06-27T07:19:03,42.805,6.029,-0.004,-0.043,-0.009,107.0,104.0,104.0,13.4,1505.2,327.7,-0.7,1.8,2470.532,13.28,0.043,185.3
2021-06-27T07:22:03,42.805,6.029,0.006,-0.03,-0.01,106.0,103.0,103.0,13.4,1505.2,326.0,-0.7,1.8,2470.531,13.28,0.03,168.7
2021-06-27T07:25:03,42.805,6.029,-0.004,-0.054,0.003,107.0,105.0,102.0,13.3,1505.2,327.1,-0.7,1.8,2470.554,13.28,0.054,184.2
2021-06-27T07:28:03,42.805,6.029,0.0,-0.038,-0.012,104.0,104.0,105.0,13.4,1505.2,328.5,-0.8,1.9,2470.537,13.28,0.038,180.0
2021-06-27T07:31:03,42.805,6.029,-0.007,-0.058,-0.029,106.0,104.0,103.0,13.4,1505.2,329.7,-0.8,1.8,2470.514,13.28,0.058,186.9
2021-06-27T07:34:03,42.805,6.029,-0.014,-0.029,0.003,105.0,105.0,103.0,13.4,1505.2,326.0,-0.7,1.8,2470.543,13.28,0.032,205.8
2021-06-27T07:37:03,42.805,6.029,0.001,-0.03,-0.03,105.0,105.0,103.0,13.4,1505.2,329.2,-0.7,1.8,2470.511,13.28,0.03,178.1
2021-06-27T07:40:03,42.805,6.029,-0.011,-0.015,-0.03,106.0,105.0,103.0,13.4,1505.2,328.3,-0.7,1.8,2470.538,13.28,0.018,216.3
2021-06-27T07:43:03,42.805,6.029,-0.002,-0.014,0.002,105.0,105.0,104.0,13.4,1505.2,324.4,-0.8,1.8,2470.506,13.28,0.014,188.1
2021-06-27T07:46:03,42.805,6.029,0.014,-0.029,-0.009,105.0,105.0,103.0,13.4,1505.2,329.6,-0.7,1.8,2470.565,13.28,0.032,154.2
2021-06-27T07:49:03,42.805,6.029,-0.015,-0.03,-0.013,107.0,105.0,102.0,13.4,1505.2,326.1,-0.7,1.8,2470.552,13.28,0.033,206.6
2021-06-27T07:52:03,42.805,6.029,0.01,-0.02,-0.001,106.0,104.0,102.0,13.4,1505.2,325.1,-0.7,1.8,2470.531,13.28,0.022,153.4
2021-06-27T07:55:03,42.805,6.029,0.004,-0.023,-0.019,105.0,106.0,104.0,13.4,1505.2,328.4,-0.7,1.8,2470.526,13.28,0.023,170.1
2021-06-27T07:58:03,42.805,6.029,-0.01,-0.053,-0.044,105.0,104.0,104.0,13.3,1505.2,329.9,-0.7,1.9,2470.505,13.28,0.053,190.7
2021-06-27T08:04:03,42.805,6.029,-0.018,-0.051,-0.02,106.0,104.0,102.0,13.3,1505.2,326.9,-0.7,1.8,2470.545,13.28,0.054,199.4
2021-06-27T08:07:03,42.805,6.029,0.001,-0.05,-0.023,105.0,105.0,102.0,13.3,1505.2,329.6,-0.7,1.8,2470.588,13.28,0.05,178.9
2021-06-27T08:10:03,42.805,6.029,0.012,-0.035,-0.021,106.0,105.0,103.0,13.4,1505.2,328.8,-0.8,1.8,2470.546,13.28,0.037,161.1
2021-06-27T08:13:03,42.805,6.029,-0.001,-0.037,-0.006,105.0,104.0,102.0,13.4,1505.2,326.0,-0.8,1.8,2470.552,13.28,0.037,181.5
2021-06-27T08:16:03,42.805,6.029,-0.003,-0.053,-0.014,105.0,104.0,103.0,13.4,1505.2,330.0,-0.8,1.8,2470.545,13.28,0.053,183.2
2021-06-27T08:19:03,42.805,6.029,0.009,-0.04,0.002,105.0,103.0,102.0,13.4,1505.2,328.0,-0.7,1.9,2470.53,13.28,0.041,167.3
2021-06-27T08:22:03,42.805,6.029,-0.014,-0.028,-0.017,104.0,105.0,102.0,13.4,1505.2,326.0,-0.8,1.9,2470.55,13.28,0.031,206.6
2021-06-27T08:25:03,42.805,6.029,-0.012,-0.049,-0.033,105.0,104.0,104.0,13.4,1505.2,325.5,-0.8,1.8,2470.541,13.28,0.05,193.8
2021-06-27T08:28:03,42.805,6.029,-0.015,-0.021,-0.004,105.0,103.0,102.0,13.4,1505.2,325.9,-0.7,1.8,2470.55,13.28,0.025,215.5
2021-06-27T08:31:03,42.805,6.029,-0.008,-0.04,-0.007,104.0,105.0,102.0,13.3,1505.2,329.4,-0.7,1.8,2470.538,13.28,0.04,191.3
2021-06-27T08:34:03,42.805,6.029,-0.001,-0.049,-0.028,105.0,105.0,102.0,13.3,1505.2,328.6,-0.7,1.8,2470.503,13.28,0.049,181.2
2021-06-27T08:37:03,42.805,6.029,-0.021,-0.033,-0.024,106.0,104.0,102.0,13.4,1505.2,329.0,-0.8,1.8,2470.522,13.28,0.039,212.5
2021-06-27T08:40:03,42.805,6.029,-0.006,-0.024,0.007,104.0,105.0,102.0,13.4,1505.2,326.2,-0.8,1.8,2470.535,13.28,0.024,194.0
2021-06-27T08:43:03,42.805,6.029,-0.022,-0.025,0.004,105.0,105.0,103.0,13.4,1505.2,329.3,-0.7,1.8,2470.561,13.28,0.033,221.3
2021-06-27T08:46:03,42.805,6.029,-0.013,-0.028,0.026,105.0,104.0,103.0,13.4,1505.2,328.7,-0.8,1.8,2470.53,13.28,0.03,204.9
2021-06-27T08:49:03,42.805,6.029,0.001,-0.03,-0.016,105.0,105.0,103.0,13.4,1505.2,329.3,-0.7,1.8,2470.52,13.28,0.03,178.1
2021-06-27T08:52:03,42.805,6.029,0.0,-0.039,-0.022,105.0,104.0,103.0,13.4,1505.2,328.1,-0.7,1.8,2470.547,13.28,0.039,180.0
2021-06-27T08:55:03,42.805,6.029,-0.012,-0.022,-0.012,106.0,104.0,103.0,13.4,1505.2,329.9,-0.7,1.9,2470.488,13.28,0.025,208.6
2021-06-27T08:58:03,42.805,6.029,-0.02,-0.026,-0.008,105.0,105.0,103.0,13.4,1505.2,329.6,-0.8,1.8,2470.513,13.28,0.032,217.6
2021-06-27T09:04:03,42.805,6.029,0.007,-0.046,-0.011,105.0,105.0,102.0,13.3,1505.2,330.0,-0.8,1.8,2470.539,13.28,0.046,171.3
2021-06-27T09:07:03,42.805,6.029,0.018,-0.033,-0.007,107.0,104.0,102.0,13.4,1505.2,324.8,-0.8,1.9,2470.514,13.28,0.037,151.4
2021-06-27T09:10:03,42.805,6.029,-0.014,-0.035,-0.001,104.0,105.0,103.0,13.4,1505.2,326.7,-0.7,1.8,2470.523,13.28,0.037,201.8
2021-06-27T09:13:03,42.805,6.029,-0.016,-0.023,-0.021,105.0,104.0,103.0,13.4,1505.2,328.0,-0.8,1.8,2470.52,13.28,0.028,214.8
2021-06-27T09:16:03,42.805,6.029,-0.006,-0.026,-0.015,105.0,106.0,102.0,13.3,1505.2,328.5,-0.7,1.8,2470.54,13.28,0.026,193.0
2021-06-27T09:19:03,42.805,6.029,0.007,-0.036,0.0,105.0,105.0,103.0,13.4,1505.2,326.7,-0.8,1.8,2470.555,13.28,0.036,169.0
2021-06-27T09:22:03,42.805,6.029,0.0,-0.031,-0.021,105.0,104.0,102.0,13.3,1505.2,329.5,-0.8,1.8,2470.555,13.28,0.03,180.0
2021-06-27T09:25:03,42.805,6.029,-0.009,-0.047,-0.012,105.0,105.0,103.0,13.4,1505.2,327.9,-0.8,1.8,2470.504,13.28,0.047,190.8
2021-06-27T09:28:03,42.805,6.029,-0.001,-0.048,-0.01,105.0,104.0,105.0,13.4,1505.2,327.3,-0.8,1.8,2470.54,13.28,0.048,181.2
2021-06-27T09:31:03,42.805,6.029,-0.007,-0.026,-0.015,106.0,105.0,102.0,13.4,1505.2,328.5,-0.8,1.8,2470.531,13.28,0.026,195.1
2021-06-27T09:34:03,42.805,6.029,-0.014,-0.039,-0.011,104.0,104.0,104.0,13.4,1505.2,327.0,-0.8,1.8,2470.5,13.28,0.041,199.7
2021-06-27T09:37:03,42.805,6.029,-0.014,-0.042,-0.02,106.0,105.0,102.0,13.4,1505.2,326.4,-0.7,1.8,2470.484,13.28,0.044,198.4
2021-06-27T09:40:03,42.805,6.029,-0.017,-0.024,-0.006,106.0,104.0,104.0,13.4,1505.2,326.9,-0.7,1.8,2470.516,13.28,0.029,215.3
2021-06-27T09:43:03,42.805,6.029,-0.016,-0.028,-0.011,106.0,105.0,103.0,13.4,1505.2,328.2,-0.7,1.8,2470.508,13.28,0.032,209.7
2021-06-27T09:46:03,42.805,6.029,-0.004,-0.024,-0.02,105.0,105.0,103.0,13.3,1505.2,326.3,-0.8,1.8,2470.533,13.28,0.024,189.5
2021-06-27T09:49:03,42.805,6.029,-0.01,-0.042,0.013,104.0,105.0,103.0,13.4,1505.2,325.7,-0.8,1.8,2470.493,13.28,0.043,193.4
2021-06-27T09:52:03,42.805,6.029,-0.024,-0.043,-0.012,104.0,104.0,103.0,13.3,1505.2,326.1,-0.7,1.8,2470.544,13.28,0.049,209.2